Terug naar catalogus

USA 136

ActiefMilitairHEO
NORAD 25034·PAYLOAD·🇺🇸 United States

Gelanceerd Nov 8, 1997 vanaf Cape Canaveral Space Force Station

Loading…

Volgende Passages (komende 24 uur)

TLE

VersSource: Mike McCants

Epoch: Sep 14, 2026, 10:24 UTC

1 25034U 97068A   26257.43394230 -.00000208  00000-0  00000-0 0    08
2 25034  64.4359 297.6374 6316916 268.0942  23.6740  2.00646853  5290

Volg USA 136 in realtime met AllMySat

Download on the App Store